Home   Weather   Sanandaj   Past weeks

Flag for Iran Past Weather in Sanandaj, Iran — Yesterday and Last 2 Weeks

Now
72 °F

Passing clouds.


Feels Like: 77 °F
Forecast: 44 / 78 °F
Wind: 2 mph from South

Location: Sanandaj Airport

Current Time: Apr 30, 2017 at 1:37:13 pm

Latest Report: Apr 30, 2017 at 12:30 pm


Visibility: N/A

Pressure: 30.12 "Hg (25.31 "Hg at 1502m altitude)

Humidity: 33%

Dew Point: 41 °F

Location of SanandajLocation

Past Weather in Sanandaj — Graph

°F

Sanandaj Temperature Yesterday

Maximum temperature yesterday: 73 °F (at 6:25 pm)
Minimum temperature yesterday: 57 °F (at 6:22 am)
Average temperature yesterday: 65 °F

High & Low Weather Summary for the Past Weeks

 TemperatureHumidityPressure
High82 °F (Apr 22, 3:30 pm)94% (Apr 15, 11:30 am)30.21 "Hg (Apr 15, 11:30 am)
Low39 °F (Apr 17, 6:30 am)10% (Apr 20, 6:20 pm)29.92 "Hg (Apr 24, 2:30 pm)
Average60 °F51%30.08 "Hg
* Reported Apr 15 11:30 am — Apr 30 11:30 am, Sanandaj, Weather by CustomWeather, © 2017

Note: Actual official high and low records may vary slightly from our data, if they occured in-between our weather recording intervals... More about our weather records

Advertising

Sanandaj Weather History for the Previous 24 Hours

Scroll right to see more
 ConditionsComfort  
Time TempWeatherWind HumidityBarometerVisibility
11:30 am
Sun, Apr 30
68 °FPassing clouds.5 mph53%30.15 "HgN/A
10:30 am64 °FPassing clouds.5 mph56%30.15 "HgN/A
9:30 am61 °FSunny.5 mph63%30.15 "Hg10 mi
8:30 am57 °FSunny.5 mph72%30.15 "Hg10 mi
7:30 am52 °FPassing clouds.No wind82%30.12 "HgN/A
6:30 am54 °FPassing clouds.No wind82%30.09 "HgN/A
5:30 am57 °FPassing clouds.2 mph67%30.09 "HgN/A
5:20 am57 °FPassing clouds.2 mph67%30.09 "HgN/A
4:21 am57 °FPassing clouds.5 mph67%30.07 "HgN/A
3:20 am59 °FPassing clouds.7 mph63%30.07 "HgN/A
2:20 am59 °FPassing clouds.5 mph63%30.07 "HgN/A
1:24 am59 °FPassing clouds.5 mph68%30.07 "Hg6 mi
12:20 am61 °FPassing clouds.7 mph63%30.07 "Hg6 mi
11:21 pm
Sat, Apr 29
63 °FPassing clouds.7 mph59%30.04 "Hg6 mi
10:22 pm63 °FPassing clouds.7 mph59%30.04 "Hg4 mi
9:21 pm64 °FPassing clouds.12 mph60%30.04 "Hg4 mi
8:22 pm64 °FScattered clouds.2 mph73%30.01 "Hg4 mi
7:21 pm70 °FBroken clouds.7 mph60%29.98 "Hg5 mi
6:25 pm73 °FBroken clouds.2 mph50%29.98 "Hg5 mi
5:30 pm66 °FSprinkles. Broken clouds.5 mph73%30.01 "Hg5 mi
4:30 pm70 °FRain showers. More clouds than sun.7 mph31%30.01 "Hg5 mi
3:30 pm72 °FThunderstorms. Broken clouds.5 mph38%30.01 "HgN/A
2:30 pm72 °FScattered clouds.5 mph38%30.04 "HgN/A
1:30 pm70 °FScattered clouds.2 mph46%30.07 "HgN/A
1:00 pm68 °FSprinkles. Scattered clouds.3 mph49%30.09 "Hg6 mi
Weather by CustomWeather, © 2017

See weather overviewHow to use our weather pages